Le nostre stazioni meteo in Italia

Pubblicità
Il mio iltempo24.it
Capo Carbonara, Italia (16564): Temperatura & dewpoint: 09.11.2018 08:00:00 - 15.11.2018 08:00:00 (CET)Capo Carbonara, Italia (16564): velocità del vento: 09.11.2018 08:00:00 - 15.11.2018 08:00:00 (CET)Capo Carbonara, Italia (16564): direzione del vento: 09.11.2018 08:00:00 - 15.11.2018 08:00:00 (CET)Capo Carbonara, Italia (16564): reduced air pressure: 09.11.2018 08:00:00 - 15.11.2018 08:00:00 (CET)Capo Carbonara, Italia (16564): visibility: 09.11.2018 08:00:00 - 15.11.2018 08:00:00 (CET)
Data & Tempo tt [°C] td [°C] ff [km/h] ff [kn] dd ppp [hPa] vv [km]
15.11.2018 08:00:00 16,0 13,0 18 10 ENE - 10
15.11.2018 07:00:00 15,8 12,6 18 10 ENE 1021,9 10
15.11.2018 06:00:00 16,0 13,0 18 10 ENE - 10
15.11.2018 05:00:00 16,0 13,0 16 9 ENE - 10
15.11.2018 04:00:00 16,0 13,0 16 9 ENE 1022,7 10
15.11.2018 03:00:00 16,0 13,0 21 11 N - 10
15.11.2018 02:00:00 16,0 13,0 18 10 ENE - 10
15.11.2018 01:00:00 16,2 13,9 15 8 ENE 1023,9 10
15.11.2018 00:00:00 17,0 14,0 21 11 NE - 10
14.11.2018 23:00:00 17,0 14,0 13 7 ENE - 10
14.11.2018 22:00:00 16,8 14,1 18 10 ENE 1023,8 10
14.11.2018 21:00:00 17,0 15,0 16 9 ENE - 10
14.11.2018 20:00:00 17,0 15,0 13 7 ENE - 10
14.11.2018 19:00:00 17,4 14,9 21 11 E 1024,4 10
14.11.2018 18:00:00 18,0 16,0 16 9 ENE - 10
14.11.2018 17:00:00 19,0 16,0 16 9 ENE - 10
14.11.2018 16:00:00 19,2 16,0 16 9 ENE 1024,6 10
14.11.2018 15:00:00 19,0 16,0 15 8 ENE - 10
14.11.2018 14:00:00 19,0 16,0 15 8 ENE - 10
14.11.2018 13:00:00 19,0 15,6 16 9 ENE 1025,6 10
14.11.2018 12:00:00 19,0 16,0 35 19 ENE - 10
14.11.2018 11:00:00 18,0 15,0 21 11 ENE - 10
14.11.2018 10:00:00 17,8 14,4 24 13 ENE 1026,4 10
14.11.2018 09:00:00 17,0 13,0 21 11 ENE - 10
14.11.2018 08:00:00 16,0 13,0 21 11 ENE - 10
14.11.2018 07:00:00 16,4 12,6 21 11 ENE 1025,9 10
14.11.2018 06:00:00 17,0 13,0 16 9 ENE - 10
14.11.2018 05:00:00 17,0 13,0 16 9 ENE - 10
14.11.2018 04:00:00 17,6 13,7 13 7 ENE 1026,1 10
14.11.2018 03:00:00 18,0 14,0 15 8 ENE - 10
14.11.2018 02:00:00 18,0 14,0 16 9 ENE - 8
14.11.2018 01:00:00 17,8 13,9 18 10 ENE 1026,4 4,0
14.11.2018 00:00:00 18,0 14,0 13 7 ENE - 8
13.11.2018 23:00:00 18,0 14,0 11 6 E - 8
13.11.2018 22:00:00 18,0 14,1 13 7 E 1026,9 4,0
13.11.2018 21:00:00 18,0 15,0 15 8 E - 8
13.11.2018 20:00:00 18,0 15,0 15 8 E - 8
13.11.2018 19:00:00 18,4 15,1 16 9 E 1026,9 4,0
13.11.2018 18:00:00 19,0 16,0 18 10 E - 8
13.11.2018 17:00:00 19,0 16,0 18 10 E - 8
13.11.2018 16:00:00 20,0 17,5 21 11 E 1026,4 4,0
13.11.2018 15:00:00 21,0 19,0 16 9 E - 8
13.11.2018 14:00:00 23,0 20,0 16 9 E - 8
13.11.2018 13:00:00 23,0 19,7 16 9 E 1026,2 4,0
13.11.2018 12:00:00 22,0 19,0 16 9 E - 8
13.11.2018 11:00:00 21,0 18,0 16 9 E - 8
13.11.2018 10:00:00 19,0 14,9 16 9 ESE 1026,9 4,0
13.11.2018 09:00:00 19,0 15,0 13 7 E - 8
13.11.2018 08:00:00 18,0 15,0 18 10 E - 10
13.11.2018 07:00:00 18,4 14,2 16 9 E 1025,7 10
13.11.2018 06:00:00 18,0 15,0 18 10 E - 10
13.11.2018 05:00:00 18,0 15,0 21 11 E - 10
13.11.2018 04:00:00 18,4 14,5 18 10 E 1025,2 10
13.11.2018 03:00:00 18,0 15,0 16 9 E - 10
13.11.2018 02:00:00 18,0 15,0 15 8 E - 10
13.11.2018 01:00:00 18,2 14,2 13 7 E 1025,2 10
13.11.2018 00:00:00 18,0 14,0 15 8 E - 10
12.11.2018 23:00:00 18,0 15,0 16 9 E - 10
12.11.2018 22:00:00 18,4 14,5 22 12 E 1025,1 10
12.11.2018 21:00:00 19,0 15,0 22 12 ENE - 10
12.11.2018 20:00:00 19,0 16,0 24 13 E - 10
12.11.2018 19:00:00 18,6 16,0 22 12 E 1024,5 10
12.11.2018 18:00:00 18,0 16,0 24 13 ENE - 10
12.11.2018 17:00:00 19,0 17,0 26 14 ENE - 10
12.11.2018 16:00:00 20,0 17,5 24 13 ENE 1023,9 20
12.11.2018 15:00:00 20,0 17,0 29 16 ENE - 10
12.11.2018 14:00:00 20,0 17,0 28 15 ENE - 10
12.11.2018 13:00:00 20,0 17,2 29 16 ENE 1024,0 20
12.11.2018 12:00:00 20,0 17,0 31 17 ENE - 10
12.11.2018 11:00:00 19,0 18,0 29 16 ENE - 10
12.11.2018 10:00:00 18,2 15,3 29 16 ENE 1024,2 10
12.11.2018 09:00:00 17,0 15,0 22 12 NE - 10
12.11.2018 08:00:00 16,0 13,0 26 14 NE - 10
12.11.2018 07:00:00 16,4 13,5 26 14 NE 1023,0 10
12.11.2018 06:00:00 16,0 13,0 26 14 ENE - 10
12.11.2018 05:00:00 - - - - - - -
12.11.2018 04:00:00 16,4 13,5 26 14 ENE 1022,6 10
12.11.2018 03:00:00 16,0 13,0 24 13 ENE - 10
12.11.2018 02:00:00 16,0 13,0 21 11 ENE - 10
12.11.2018 01:00:00 16,0 13,4 16 9 ENE 1022,5 10
12.11.2018 00:00:00 16,0 13,0 15 8 ENE - 10
11.11.2018 23:00:00 16,0 13,0 15 8 ENE - 10
11.11.2018 22:00:00 16,2 13,7 13 7 NE 1022,2 10
11.11.2018 21:00:00 16,0 14,0 9 5 NE - 10
11.11.2018 20:00:00 17,0 14,0 4 2 NE - 10
11.11.2018 19:00:00 16,8 15,0 0 0 N 1021,7 10
11.11.2018 18:00:00 18,0 16,0 4 2 ESE - 10
11.11.2018 17:00:00 19,0 17,0 8 4 S - 10
11.11.2018 16:00:00 21,0 17,2 8 4 SSO 1020,3 10
11.11.2018 15:00:00 21,0 17,0 11 6 S - 10
11.11.2018 14:00:00 21,0 17,0 9 5 SSO - 10
11.11.2018 13:00:00 20,0 16,3 8 4 SO 1020,0 10
11.11.2018 12:00:00 19,0 16,0 11 6 OSO - 10
11.11.2018 11:00:00 19,0 16,0 11 6 SSO - 10
11.11.2018 10:00:00 17,4 15,4 5 3 ENE 1019,6 10
11.11.2018 09:00:00 17,0 15,0 8 4 ENE - 10
11.11.2018 08:00:00 16,0 14,0 11 6 NE - 10
11.11.2018 07:00:00 15,8 14,0 13 7 NE 1018,0 10
11.11.2018 06:00:00 16,0 15,0 11 6 NNE - 10
11.11.2018 05:00:00 16,0 13,0 9 5 NNE - 10
11.11.2018 04:00:00 16,4 12,7 9 5 NNE 1017,2 10
11.11.2018 03:00:00 17,0 14,0 11 6 NNE - 10
11.11.2018 02:00:00 16,0 12,0 8 4 O - 10
11.11.2018 01:00:00 16,4 13,1 5 3 O 1016,5 10
11.11.2018 00:00:00 17,0 13,0 5 3 N - 10
10.11.2018 23:00:00 17,0 13,0 4 2 N - 10
10.11.2018 22:00:00 16,4 14,1 8 4 O 1015,7 10
10.11.2018 21:00:00 17,0 15,0 11 6 O - 10
10.11.2018 20:00:00 17,0 14,0 9 5 ENE - 10
10.11.2018 19:00:00 17,0 14,5 5 3 NO 1014,7 10
10.11.2018 18:00:00 17,0 15,0 18 10 O - 10
10.11.2018 17:00:00 18,0 16,0 5 3 O - 10
10.11.2018 16:00:00 18,2 15,5 24 13 O 1013,7 10
10.11.2018 15:00:00 19,0 15,0 13 7 OSO - 10
10.11.2018 14:00:00 18,0 15,0 21 11 O - 10
10.11.2018 13:00:00 18,0 13,7 26 14 O 1013,8 10
10.11.2018 12:00:00 16,0 13,0 29 16 O - 10
10.11.2018 11:00:00 15,0 11,0 35 19 O - 10
10.11.2018 10:00:00 14,4 10,2 42 23 O 1014,4 10
10.11.2018 09:00:00 15,0 11,0 39 21 O - 10
10.11.2018 08:00:00 15,0 10,0 46 25 O - 10
10.11.2018 07:00:00 15,0 8,9 37 20 O 1014,0 10
10.11.2018 06:00:00 15,0 11,0 41 22 OSO - 10
10.11.2018 05:00:00 15,0 9,0 31 17 NNE - 10
10.11.2018 04:00:00 15,0 8,5 48 26 O 1014,8 10
10.11.2018 03:00:00 15,0 9,0 48 26 O - 10
10.11.2018 02:00:00 15,0 10,0 67 36 O - 10
10.11.2018 01:00:00 15,2 9,8 67 36 O 1014,7 10
10.11.2018 00:00:00 17,0 11,0 48 26 O - 10
09.11.2018 23:00:00 17,0 10,0 35 19 ONO - 10
09.11.2018 22:00:00 17,0 10,2 37 20 ONO 1014,9 10
09.11.2018 21:00:00 17,0 13,0 9 5 NO - 10
09.11.2018 20:00:00 17,0 14,0 11 6 N - 10
09.11.2018 19:00:00 17,0 14,1 15 8 NNE 1014,9 10
09.11.2018 18:00:00 17,0 15,0 18 10 NE - 10
09.11.2018 17:00:00 18,0 15,0 18 10 NE - 10
09.11.2018 16:00:00 18,6 16,0 13 7 ENE 1014,8 10
09.11.2018 15:00:00 19,0 17,0 21 11 ENE - 10
09.11.2018 14:00:00 20,0 17,0 21 11 ENE - 10
09.11.2018 13:00:00 21,0 17,0 18 10 E 1016,4 10
09.11.2018 12:00:00 21,0 17,0 21 11 E - 10
09.11.2018 11:00:00 20,0 16,0 18 10 E - 10
09.11.2018 10:00:00 18,0 14,9 21 11 E 1017,5 10
09.11.2018 09:00:00 17,0 14,0 21 11 ENE - 10
09.11.2018 08:00:00 16,0 13,0 21 11 ENE - 10

tt = Temperatura
td = dewpoint
ff = velocità del vento
dd = direzione del vento
ppp = reduced air pressure
vv = visibility

Stazioni seguenti

WeatherPro
AMSI
MeteoEarth